Minneapolis, MN

11:20 AM CDT on March 25, 2017 (GMT -0500)
Minneapolis-Saint Paul International

Weather History for KMSP - August, 2014

Change the Weather History Date:

Monday, August 4, 2014

  Actual Average Record
Temperature  
Mean Temperature 75 °F 73 °F  
Max Temperature 81 °F 82 °F 102 °F (1947)
Min Temperature 68 °F 63 °F 48 °F (1978)
Degree Days  
Heating Degree Days 0 0  
Month to date heating degree days 0 0  
Since 1 June heating degree days 28 49  
Since 1 July heating degree days 7 5  
Cooling Degree Days 10 8  
Month to date cooling degree days 46 32  
Year to date cooling degree days 477 508  
Since 1 June cooling degree days 425 466  
Growing Degree Days 24 (Base 50)    
Moisture  
Dew Point 64 °F    
Average Humidity 69    
Maximum Humidity 87    
Minimum Humidity 51    
Precipitation  
Precipitation 0.00 in 0.15 in 2.65 in (1941)
Month to date precipitation 0.67 0.60  
Year to date precipitation 28.77 18.47  
Snow  
Snow 0.00 in 0.00 in 0.00 in ()
Month to date snowfall 0.0 0.0  
Since 1 June snowfall 0.0 0.0  
Since 1 July snowfall 0.0 0.0  
Snow Depth 0.00 in    
Sea Level Pressure  
Sea Level Pressure 30.04 in    
Wind  
Wind Speed 7 mph (NNE)    
Max Wind Speed 14 mph    
Max Gust Speed 23 mph    
Visibility 10 miles    
Events      
T = Trace of Precipitation, MM = Missing Value Source: NWS Daily Summary

Daily Weather History Graph

Daily Weather History Graph

Search for Another Location

Airport or City:

Trip Planner

Search our weather history database for the weather conditions in past years. The results will help you decide how hot, cold, wet, or windy it might be!

Date:

Astronomy

Aug. 04, 2014 Rise Set
Actual Time 6:02 AM CDT 8:35 PM CDT
Civil Twilight 5:28 AM CDT 9:08 PM CDT
Nautical Twilight 4:47 AM CDT 9:49 PM CDT
Astronomical Twilight 3:59 AM CDT 10:36 PM CDT
Moon 2:47 PM CDT (8/4) 12:11 AM CDT (8/4)
Length of Visible Light 15h 39m
Length of Day
14h 33m
First Quarter, 57% of the Moon is Illuminated
Aug 4
First Quarter
Aug 10
Full
Aug 17
Last Quarter
Aug 25
New
Sep 2
First Quarter

Hourly Weather History & Observations

Time (CDT) Temp. Heat Index Dew Point Humidity Pressure Visibility Wind Dir Wind Speed Gust Speed Precip Events Conditions
12:53 AM 71.1 °F - 66.9 °F 87% 30.04 in 9.0 mi Calm Calm - N/A   Mostly Cloudy
1:53 AM 70.0 °F - 64.9 °F 84% 30.04 in 9.0 mi ENE 4.6 mph - N/A   Mostly Cloudy
2:53 AM 70.0 °F - 64.9 °F 84% 30.04 in 10.0 mi ESE 3.5 mph - N/A   Mostly Cloudy
3:53 AM 69.1 °F - 64.9 °F 87% 30.05 in 10.0 mi North 4.6 mph - N/A   Mostly Cloudy
4:53 AM 69.8 °F - 64.4 °F 83% 30.06 in 9.0 mi NE 3.5 mph - N/A   Mostly Cloudy
5:53 AM 68.0 °F - 64.0 °F 87% 30.04 in 10.0 mi East 3.5 mph - N/A   Mostly Cloudy
6:53 AM 69.8 °F - 64.4 °F 83% 30.06 in 8.0 mi NE 5.8 mph - N/A   Mostly Cloudy
7:53 AM 69.1 °F - 64.9 °F 87% 30.06 in 8.0 mi North 4.6 mph - N/A   Mostly Cloudy
8:53 AM 71.1 °F - 64.9 °F 81% 30.06 in 8.0 mi NNE 5.8 mph - N/A   Mostly Cloudy
9:53 AM 73.0 °F - 64.9 °F 76% 30.07 in 9.0 mi Variable 6.9 mph - N/A   Mostly Cloudy
10:53 AM 75.9 °F - 64.9 °F 69% 30.07 in 10.0 mi NNW 4.6 mph - N/A   Mostly Cloudy
11:53 AM 75.9 °F - 64.0 °F 67% 30.07 in 10.0 mi Variable 6.9 mph - N/A   Mostly Cloudy
12:53 PM 77.0 °F - 66.0 °F 69% 30.05 in 10.0 mi NE 5.8 mph - N/A   Mostly Cloudy
1:53 PM 81.0 °F 83.0 °F 66.0 °F 60% 30.03 in 10.0 mi NNW 10.4 mph 18.4 mph N/A   Mostly Cloudy
2:53 PM 80.1 °F 81.7 °F 64.0 °F 58% 30.03 in 10.0 mi NNW 8.1 mph - N/A   Mostly Cloudy
3:53 PM 80.1 °F 81.5 °F 63.0 °F 56% 30.02 in 10.0 mi Variable 5.8 mph - N/A   Mostly Cloudy
4:53 PM 80.1 °F 81.1 °F 61.0 °F 52% 30.01 in 10.0 mi Variable 6.9 mph - N/A   Mostly Cloudy
5:53 PM 81.0 °F 81.7 °F 61.0 °F 50% 30.01 in 10.0 mi NNE 9.2 mph - N/A   Scattered Clouds
6:53 PM 79.0 °F - 61.0 °F 54% 30.01 in 10.0 mi NNE 11.5 mph - N/A   Partly Cloudy
7:53 PM 77.0 °F - 60.1 °F 56% 30.02 in 10.0 mi North 9.2 mph - N/A   Partly Cloudy
8:53 PM 73.9 °F - 61.0 °F 64% 30.04 in 10.0 mi North 8.1 mph - N/A   Partly Cloudy
9:53 PM 73.0 °F - 61.0 °F 66% 30.05 in 10.0 mi North 6.9 mph - N/A   Partly Cloudy
10:53 PM 72.0 °F - 59.0 °F 64% 30.05 in 10.0 mi North 8.1 mph - N/A   Partly Cloudy
11:53 PM 71.1 °F - 59.0 °F 66% 30.06 in 10.0 mi North 8.1 mph - N/A   Scattered Clouds